Location: Eaton
(41.3139°N, 82.0207°W)
Time: 13:17:27
(UTC+00:00)

BREEZE-M DEB (TANK) - Pass Details

Date: 17 June 2021
Orbit: 287 x 18721 km, 52.5° (Epoch: 26 July)

Event Time Altitude Azimuth Distance (km) Brightness Sun altitude
Rises 02:58:05 0° 307° (NW) 3,514 8.4 -16.5°
Reaches altitude 10° 03:01:30 10° 313° (NW) 1,730 6.6 -16.8°
Maximum altitude 03:04:27 44° 29° (NNE) 464 2.6 -17.1°
Enters shadow 03:04:47 40° 58° (ENE) 481 2.5 -17.2°
